Preview of NWS' New Version of Forecast
This preview is not operational and should not be used for support decisions.
Latest weather observations around

Mobile, Mobile Downtown Airport (KBFM)

Using English Units (Switch to International System of Units)
Date/ Time (CDT) Wind (mph) Vis. (mi) Weather Sky Cond. Temp (°F) Rel. Humidity Wind Chill (°F) Heat Index (°F) Pressure Precip. (in)
Air Dwpt 6 hour Altimeter (inHg) Sea level (inHg) 1 hr 3 hr 6 hr
Max Min
Sep 20 14:53 SE 10 10 Clear CLR 89 64     44%   90 30.13 30.13      
Sep 20 13:53 6 10 Partly Cloudy SCT035 88 66     48%   90 30.15 30.15      
Sep 20 12:53 E 10 10 Mostly Clear FEW040 87 67     51%   90 30.17 30.16      
Sep 20 11:53 E 10 10 Mostly Clear FEW040 85 67     55%   88 30.18 30.18      
Sep 20 10:53 ENE 11 10 Mostly Clear FEW040 84 66     55%   86 30.19 30.19      
Sep 20 09:53 E 14 10 Mostly Clear FEW030 81 66     61%   83 30.18 30.18      
Sep 20 08:53 ENE 10 10 Mostly Clear FEW030 79 67     67%   80   30.17      
Sep 20 07:53 E 15 10 Mostly Clear FEW030 76 68     76%   77 30.15 30.15      
Sep 20 06:53 E 18 10 Clear CLR 76 67     74%   77   30.13      
Sep 20 05:53 E 17 10 Clear CLR 76 66     71%   77 30.12 30.12      
Sep 20 04:53 E 18 10 Clear CLR 77 65     66%   78   30.1      
Sep 20 03:53 E 14 10 Clear   78 66     67%   79 30.09 30.09      
Sep 20 03:18 E 13 10 Mostly Cloudy BKN045 78 68     71%   79 30.09        
Sep 20 02:53 E 9 10 Mostly Cloudy FEW045 BKN055 78 71     79%   79 30.09 30.09      
Sep 20 01:53 ENE 13 10 Mostly Cloudy FEW034 SCT043 BKN055 79 74     85%   83 30.09 30.09      
Sep 20 00:53 NE 10 10 Clear CLR 78 75     90%   80 30.09 30.09      
Sep 19 23:53 N 6 10 Mostly Clear FEW040 77 74     90%   79 30.09 30.09      
Sep 19 22:53 Calm 10 Clear CLR 74 73     97%   76   30.09      
Sep 19 21:53 Calm 10 Clear CLR 74 72     94%   75   30.09      
Sep 19 20:53 WNW 3 10 Clear CLR 73 72     96%   75 30.08 30.08      
Sep 19 19:53 WSW 5 10 Clear CLR 73 71     94%   74 30.05 30.05      
Sep 19 19:08 WSW 5 10 Clear CLR 73 71     94%   74 30.06        
Sep 19 18:53 SW 5 10 Mostly Clear FEW120 73 71     94%   74 30.07 30.06 0   3
Sep 19 18:48 SW 7 10 Mostly Clear FEW120 73 72     94%   75 30.07   0    
Sep 19 18:19 SW 5 10 Mostly Cloudy SCT039 SCT090 BKN110 73 71     94%   74 30.07   0    
Sep 19 18:04 SSW 6 7 Thunderstorms and Rain FEW006 BKN044 OVC110 72 71     97%   73 30.07   0    
Sep 19 17:53 WSW 5 2 Thunderstorms and Rain and Fog/Mist FEW006 BKN026 OVC043 72 71     97%   73 30.08 30.07 1    
Sep 19 17:35 SW 5 2 Thunderstorms and Rain and Fog/Mist SCT005 OVC025 74 73     97%   76 30.08   0    
Sep 19 17:07 Calm 2 Thunderstorms and Rain SCT016 BKN028 OVC035 76 70     82%   77 30.07   0    
Sep 19 16:53 WNW 11 2 Thunderstorms and Rain and Fog/Mist BKN014 OVC029 72 71     97%   73 30.05 30.05 2    
Sep 19 16:29 NW 14 2 Thunderstorms and Rain and Fog/Mist SCT006 OVC014 75 73     94%   77 30.08   0    
Sep 19 16:21 W 6 9 Thunderstorms and Rain BKN009 OVC014 75 73     94%   77 30.07   0    
Sep 19 16:11 WSW 3 5 Thunderstorms and Rain and Fog/Mist SCT010 BKN014 OVC018 75 73     94%   77 30.06   0    
Sep 19 16:09 3 1.25 Thunderstorms and Rain and Fog/Mist FEW008 SCT012 OVC018 75 73     94%   77 30.06   0    
Sep 19 16:07 Calm 0.5 Thunderstorms and Rain and Fog BKN010 OVC018 75 73     94%   77 30.06   0    
Sep 19 16:00 5 0.25 Thunderstorms and Heavy Rain and Fog SCT010 OVC016 75 73     94%   77 30.06   0    
Sep 19 15:58 Calm 0.5 Heavy Rain and Fog FEW010 OVC016 75 73     94%   77 30.06   0    
Sep 19 15:53 SSW 8 1 Heavy Rain and Fog/Mist BKN014 OVC020 74 72     94%   75 30.04 30.03 0 1  
Sep 19 15:48 NW 26 1.5 Thunderstorms and Rain and Fog/Mist BKN014 OVC020 75 72     89%   77 30.05   0    
Sep 19 15:42 NNW 21 10 Thunderstorms and Rain OVC014 76 73     91%   77 30.05   0    
Sep 19 15:12 S 8 10 Thunderstorms and Rain BKN022 BKN032 OVC042 80 76     87%   85 30.05   0    
Sep 19 15:00 SSE 14 10 Thunderstorms and Rain FEW023 BKN034 OVC042 81 77     88%   88 30.04   0    
Sep 19 14:53 SSE 10 7 Thunderstorms and Rain FEW013 BKN025 BKN065 82 77     85%   90 30.04 30.04 0    
Sep 19 13:53 ESE 22 7 Thunderstorms and Rain FEW013 BKN025 BKN065 81 77     88%   88 30.04 30.03 0    
Sep 19 12:53 SSE 9 10 Thunderstorms BKN025 BKN034 85 76     75%   94 30.05 30.05      
Sep 19 12:06 E 16 10 Thunderstorms SCT023 BKN029 OVC038 89 77     68%   102 30.04        
Sep 19 11:53 E 17 10 Cloudy SCT023 BKN029 OVC038 90 77     66%   103 30.04 30.04      
Sep 19 10:53 E 13 10 Mostly Cloudy BKN021 BKN029 88 78     73%   102 30.06 30.06      
Sep 19 09:53 ESE 15 10 Mostly Cloudy BKN016 86 78     77%   98 30.05 30.05      
Sep 19 08:53 E 14 10 Mostly Cloudy BKN010 83 77     82%   92 30.03 30.03      
Sep 19 08:39 E 10 10 Mostly Cloudy BKN010 82 77     85%   90 30.03        
Sep 19 07:53 E 13 10 Mostly Clear FEW015 82 76     82%   89 30.01 30.01      
Sep 19 06:53 Calm 10 Clear CLR 75 73     94%   77 29.99 29.99      
Sep 19 05:53 NW 3 10 Clear CLR 76 74     94%   78   29.98      
Sep 19 04:53 Calm 10 Clear CLR 76 74     94%   78 29.95 29.95      
Sep 19 03:53 SW 3 10 Clear CLR 76 74     94%   78 29.95 29.95      
Sep 19 03:16 WSW 5 10 Mostly Clear FEW090 77 75     94%   79 29.96        
Sep 19 02:53 Calm 10 Clear CLR 77 74     90%   79 29.96 29.96      
Sep 19 01:53 Calm 10 Clear CLR 77 74     90%   79 29.97 29.97      
Sep 18 23:53 WNW 5 10 Clear CLR 81 76     85%   87 29.97 29.96      
Sep 18 22:53 W 6 10 Clear CLR 82 76     82%   89 29.97 29.96      
Sep 18 21:53 W 6 10 Clear CLR 83 76     79%   91 29.97 29.97      
Sep 18 20:53 W 6 10 Clear CLR 84 75     74%   92 29.98 29.97      
Sep 18 19:53 WSW 6 10 Clear CLR 85 74     70%   92 29.96 29.96      
Sep 18 18:53 WSW 6 10 Clear CLR 87 72     61%   94 29.95 29.94     0
Sep 18 17:53 SW 7 10 Clear CLR 93 71     49%   100 29.93 29.93      
Sep 18 16:53 S 7 10 Mostly Clear FEW045 95 73     49%   105 29.93 29.92      
Sep 18 15:53 S 8 10 Mostly Clear FEW045 95 75     53%   107 29.94 29.93   0  
Sep 18 14:53 SSE 11 10 Mostly Clear FEW045 94 77     58%   109 29.95 29.95      
Sep 18 13:53 SE 9 10 Mostly Clear FEW050 94 79     62%   112 29.97 29.97 0    
Sep 18 12:53 SE 9 10 Mostly Clear FEW050 94 77     58%   109 29.99 29.99 0   0
Sep 18 11:53 5 10 Clear CLR 95 71     46%   103 30 30      
Notice The following observation data may not be complete
Sep 18 10:53   10 Clear CLR          %              
Sep 18 08:53 NW 5 10 Clear CLR 86 76     72%   96 30.02 30.02      
Sep 18 07:53 NW 5 10 Clear CLR 81 76     85%   87 30.01 30.01      
Sep 18 06:53 Calm 10 Clear CLR 75 74     96%   77 30 30      
Sep 18 05:53 WSW 3 9 Clear CLR 76 75     97%   78 29.99 29.99      
Sep 18 04:53 Calm 10 Clear CLR 77 74     90%   79 29.98 29.98      
Sep 18 03:53 W 5 10 Clear CLR 79 75     88%   83 29.98 29.97      
Sep 18 03:21 W 5 10 Clear CLR 79 75     88%   83 29.97        
Sep 18 02:53 W 3 10 Clear CLR 79 75     88%   83 29.97 29.97      
Sep 18 01:53 W 3 10 Clear CLR 79 75     88%   83 29.97 29.97      
Sep 18 00:53 Calm 10 Clear CLR 80 75     85%   85 29.97 29.97      
Sep 17 23:53 W 5 10 Clear CLR 81 76     85%   87 29.98 29.98      
Sep 17 22:53 W 6 10 Clear CLR 82 76     82%   89 29.99 29.99      
Sep 17 21:53 W 6 10 Clear   83 76     79%   91 30 30      
Sep 17 20:53 W 6 10 Clear CLR 83 74     74%   89 29.99 29.99      
Sep 17 19:53 6 10 Clear CLR 85 72     65%   91 29.97 29.97      
Sep 17 18:53 WSW 7 10 Clear CLR 87 71     59%   93 29.95 29.95      
Sep 17 17:53 SW 7 10 Clear CLR 91 70     50%   97 29.95 29.95      
Sep 17 16:53 SSW 7 10 Mostly Clear FEW045 95 71     46%   103 29.95 29.95      
Sep 17 15:53 S 7 10 Mostly Clear FEW045 96 69     42%   102 29.96 29.96      
Sep 17 14:53 S 9 10 Mostly Clear FEW045 95 74     51%   106 29.98 29.98      
May 15 08:00 NNE 6 10 Fog/Mist SCT018 76 73     91%   77 29.95        
May 14 17:53 NW 10 10 Light Rain FEW043 SCT095 OVC120 74 67     79%   75 29.92 29.92 0    
May 14 15:53 NE 10 10 Partly Cloudy SCT085 95 62     34%   96 29.92 29.91      
May 14 03:53 Calm 10 Clear CLR 71 70     96%   72 30 30      
May 13 19:53 SSE 6 10 Mostly Cloudy BKN085 BKN100 83 68     61%   86 30.01 30 0    
May 13 12:53 ENE 10 10 Clear CLR 90 65     44%   92 30.09 30.09      
May 13 07:53 N 6 10 Clear CLR 76 67     74%   77 30.12 30.12      
May 12 07:53 NE 5 10 Clear CLR 75 70     84%   76 30.15 30.15      
May 12 02:53 Calm 10 Clear CLR 65 64     97%     30.08 30.08      
Jun 12 05:53 ESE 7 10 Clear CLR 79 77     94%   83 30.09 30.08      
Notice The following observation data may not be complete
Jun 12 02:30   10 Mostly Cloudy BKN017 BKN026 BKN031          %              
Jun 10 21:53 SE 9 10 Clear CLR 79 72     79%   82 30.04 30.04      
Jun 10 19:53 6 10 Clear CLR 80 70     71%   83 30.01 30.01      
Jun 10 08:53 E 5 10 Clear CLR 78 70     76%   79 30.05 30.04      
Jun 08 01:53 N 11 10 Clear CLR 74 58     57%   74 29.82 29.82      
Jun 05 19:53 S 7 10 Mostly Cloudy BKN019 80 75     85%   85 29.77 29.77